Regional Weather Roundup
Issued by NWS

Home | Current Version | Previous Version | Text Only | Print | Product List | Glossary Off
Versions: 1 2 3 4 5 6 7 8 9 10 11 12 13 14 15 16 17 18 19 20 21 22 23 24 25 26 27 28 29 30 31 32 33 34 35 36 37 38 39 40 41 42 43 44 45 46 47 48 49 50

000
ASUS45 KBOU 282007
RWRCO

WEATHER ROUNDUP FOR COLORADO
NATIONAL WEATHER SERVICE DENVER/BOULDER CO
200 PM MDT MON JUL 28 2014

NOTE: "FAIR" INDICATES FEW OR NO CLOUDS BELOW 12000 FEET WITH NO
SIGNIFICANT WEATHER AND/OR OBSTRUCTIONS TO VISIBILITY.

COZ001>005-013-030-031-282100-
...NORTHWEST COLORADO...

CITY           SKY/WX    TMP DP  RH WIND       PRES   REMARKS
CRAIG          MOSUNNY   82  40  22 NE6       30.31F
HAYDEN         MOSUNNY   84  41  21 N6        30.34F
MEEKER         MOSUNNY   86  44  23 VRB7      30.32F
MOUNT WERNER   NOT AVBL
STEAMBOAT SPGS MOSUNNY   82  43  24 SW8       30.36F
WALDEN         SUNNY     73  34  23 W7        30.46F
$$

COZ006>008-011-282100-
...WEST CENTRAL VALLEYS...

CITY           SKY/WX    TMP DP  RH WIND       PRES   REMARKS
GRAND JUNCTION PTSUNNY   85  52  32 NW8       30.24F
MONTROSE       PTSUNNY   87  51  28 W13       30.32F
EAGLE          PTSUNNY   82  45  26 NW5       30.34F
RIFLE          PTSUNNY   86  49  27 NW13      30.27F
DELTA          PTSUNNY   85  51  30 SW12      30.28F
NUCLA          CLOUDY    79  46  31 N7        30.41F
$$

COZ017>023-064>068-282100-
...SOUTHWEST COLORADO...

CITY           SKY/WX    TMP DP  RH WIND       PRES   REMARKS
DURANGO        CLOUDY    76  52  43 NW6       30.40F
CORTEZ         SUNNY     83  50  31 VRB6      30.35F
PAGOSA SPRINGS MOSUNNY   76  43  30 S6        30.47F
TELLURIDE      NOT AVBL
WOLF CREEK PAS NOT AVBL
$$

COZ009-010-012-014-032>034-037-058>063-282100-
...CENTRAL COLORADO...

CITY           SKY/WX    TMP DP  RH WIND       PRES   REMARKS
ASPEN          CLOUDY    79  46  31 NW12G17   30.42F
BUENA VISTA    PTSUNNY   70  44  37 W23G35    30.45  THUNDER
COPPER MTN     CLOUDY    59  39  47 W20       30.77F
BERTHOUD PASS  FAIR      50  36  57 E20G30    30.82F THUNDER
COTTONWOOD PAS TSTM      59  43  55 W16G25    30.61F
GUNNISON       PTSUNNY   75  45  33 W5        30.47F
KREMMLING      MOSUNNY   79  41  25 W9        30.40F
LEADVILLE      CLOUDY    62  43  49 E7G17     30.59F
MONARCH PASS   PTSUNNY   55  45  67 SW10      30.88F THUNDER
SALIDA         PTSUNNY   82  48  30 SW7G16    30.48F
SUNLIGHT       CLOUDY    63  50  63 CALM      30.70F
WILKERSON PASS NOT AVBL
$$

COZ069>075-282100-
...SAN LUIS VALLEY/SANGRE DE CRISTO MOUNTAINS...

CITY           SKY/WX    TMP DP  RH WIND       PRES   REMARKS
ALAMOSA        PTSUNNY   70  55  59 E6        30.46F
LA VETA PASS   PTSUNNY   64  46  52 SW8       30.65F
SAGUACHE       PTSUNNY   66  52  59 S8        30.50F
$$

COZ035-036-038>040-282100-
...NORTHERN COLORADO FRONT RANGE...

CITY           SKY/WX    TMP DP  RH WIND       PRES   REMARKS
DENVER INTL AP PTSUNNY   84  55  36 E8G16     30.29F
DMNS CITY PARK   N/A     82  54  38 S1        30.30F
AURORA         PTSUNNY   83  58  43 E12G20    30.31F
FRONT RANGE AP NOT AVBL
ERIE MUNI ARPT MOSUNNY   84  54  35 W6        30.29F
BOULDER MUN AP MOSUNNY   82  54  36 CALM      30.31S
CENTENNIAL     PTSUNNY   82  57  42 SE16G22   30.32F
BROOMFIELD     PTSUNNY   82  55  39 W3        30.33F
FORT COLLINS   PTSUNNY   82  55  39 SE3       30.29F
LONGMONT       PTSUNNY   88  51  28 CALM      30.31S
$$

COZ041-046-047-076>085-087-088-282100-
...PIKES PEAK/PALMER DIVIDE AND SOUTHERN FOOTHILLS...

CITY           SKY/WX    TMP DP  RH WIND       PRES   REMARKS
COLO. SPRINGS  PTSUNNY   69  60  73 SE12      30.41F
A. F. ACADEMY  MOSUNNY   69  59  71 SE13      30.42F
ELLICOTT       CLOUDY    70  59  68 SE14      30.39F
FALCON         CLOUDY    67  58  72 SE12      30.45F
FORT CARSON    NOT AVBL
LIMON          PTSUNNY   77  55  46 SE20G25   30.36F
MONUMENT HILL  MOSUNNY   72  59  64 SE15      30.43F
TRINIDAD       PTSUNNY   78  56  46 NE5       30.34F
$$

COZ042>045-048>051-090-091-282100-
...NORTHEAST COLORADO...

CITY           SKY/WX    TMP DP  RH WIND       PRES   REMARKS
GREELEY ARPT   MOSUNNY   86  57  37 SE6       30.28F
AKRON          CLOUDY    84  55  36 SE17G25   30.29F
BURLINGTON     PTSUNNY   80  57  45 S12G23    30.32F
WRAY             N/A     88  53  30 S14G22    30.27S
STERLING       MOSUNNY   91  61  35 S10G16    30.24F
HOLYOKE        SUNNY     88  55  33 SE8G18    30.26F
FORT MORGAN    MOSUNNY   88  53  30 E12G22    30.26F
$$

COZ086-089-092>099-282100-
...SOUTHEAST COLORADO...

CITY           SKY/WX    TMP DP  RH WIND       PRES   REMARKS
PUEBLO         PTSUNNY   78  61  55 E9        30.30F
LA JUNTA       MOSUNNY   81  61  50 SE15G21   30.28F
LAMAR          SUNNY     80  60  50 S15G26    30.27F
SPRINGFIELD      N/A     69  60  73 S18       30.36F
$$



USA.gov is the U.S. government's official web portal to all federal, state and local government web resources and services.